Regional Weather Roundup
Issued by NWS

Home | Current Version | Previous Version | Text Only | Print | Product List | Glossary Off
Versions: 1 2 3 4 5 6 7 8 9 10 11 12 13 14 15 16 17 18 19 20 21 22 23 24 25 26 27 28 29 30 31 32 33 34 35 36 37 38 39 40 41 42 43 44 45 46 47 48 49 50

000
ASUS44 KMEG 281810
RWRTN
TENNESSEE HOURLY STATE WEATHER ROUNDUP
NATIONAL WEATHER SERVICE MEMPHIS TN
100 PM CDT WED SEP 28 2016

TNZ002-004-019-021-049-052-054-088>092-281900-
WEST TENNESSEE

CITY           SKY/WX    TMP DP  RH WIND       PRES   REMARKS
MEMPHIS INTL   SUNNY     85  51  31 SW13G22   29.92F
NWS MEMPHIS      N/A     83 N/A N/A MISG        N/A
JACKSON        SUNNY    N/A N/A N/A SW12      29.88F
DYERSBURG      MOSUNNY  N/A N/A N/A MISG        N/A
UNION CITY     MOSUNNY   79  55  44 NW10      29.86R
PARIS          MOSUNNY   81  54  39 W12       29.86F
HUNTINGDON     SUNNY     84  52  32 SW14G23   29.84F
LEXINGTON      SUNNY     82  46  28 SW10      29.88F
$$

TNZ008-025-027-028-033-062-065-066-281900-
NORTH MIDDLE TENNESSEE

CITY           SKY/WX    TMP DP  RH WIND       PRES   REMARKS
NASHVILLE      MOSUNNY   81  47  30 SW14G22   29.89F
PORTLAND       SUNNY     79  52  38 S15G23    29.85F
CLARKSVILLE    PTSUNNY   79  52  38 SW15G22   29.84F
SMYRNA         SUNNY     82  48  30 SW12G20   29.90F
COOKEVILLE     SUNNY     81  50  34 SW8       29.92F
GALLATIN       SUNNY     81  48  32 S13G20    29.90F
CROSSVILLE     SUNNY     75  42  30 W9G20     29.96F
$$

TNZ061-075-076-078-094-096-097-281900-
SOUTH MIDDLE TENNESSEE

CITY           SKY/WX    TMP DP  RH WIND       PRES   REMARKS
FAYETTEVILLE   SUNNY     79  45  29 W9G15     29.94F
TULLAHOMA      SUNNY     79  43  27 SW9       29.95F
WINCHESTER     SUNNY     81  46  30 VRB6      29.94F
MCMINNVILLE    SUNNY     81  48  32 SW9       29.94S
COLUMBIA       SUNNY     81  52  36 SW13      29.91F
SHELBYVILLE    SUNNY     82  48  30 SW9       29.94F
$$

TNZ017-018-042-046-047-281900-
NORTHEAST TENNESSEE

CITY           SKY/WX    TMP DP  RH WIND       PRES   REMARKS
TRI CITIES     MOSUNNY   78  48  34 W10       29.94F
ELIZABETHTON   SUNNY     77  57  50 VRB6G15   29.93F
$$

TNZ012-013-036-069-073-074-281900-
CENTRAL EAST TENNESSEE

CITY           SKY/WX    TMP DP  RH WIND       PRES   REMARKS
KNOXVILLE      MOSUNNY   79  36  21 SW12G23   29.93
OAK RIDGE      SUNNY     79  43  27 VRB5      29.94F
DOWNTOWN KNOXV SUNNY     81  45  28 W9        29.93F
GATLINBURG     SUNNY     81  45  28 W9        29.92F
MORRISTOWN     SUNNY     77  37  24 W7G14     29.93F
JACKSBORO      SUNNY     77  46  33 VRB7G15   29.95F
$$

TNZ083-085-099-281900-
SOUTHEAST TENNESSEE

CITY           SKY/WX    TMP DP  RH WIND       PRES   REMARKS
CHATTANOOGA    SUNNY     80  42  25 CALM      29.94F
$$

SKY/WX REPORTED AS FAIR MEANS FEW OR NO CLOUDS BELOW
12 THOUSAND FEET.




USA.gov is the U.S. government's official web portal to all federal, state and local government web resources and services.